GW3697 Weather Reports


Display with metric or nautical units.
time (UTC)temp
F
wind
direction
speed
MPH
gust
MPH
rain 1hr
in
rain 24hr
in
rain mn
in
humidity
%
barometer
mb
20260503193007 61 254 10.0 20.0 0.00 0.00 0.00 42 1011.4
20260503191503 61 203 9.0 18.0 0.00 0.00 0.00 45 1011.7
20260503190006 61 203 8.0 22.0 0.00 0.00 0.00 43 1011.7
20260503184507 61 236 7.0 18.0 0.00 0.00 0.00 44 1011.8
20260503183003 62 251 10.0 21.0 0.00 0.00 0.00 41 1012.0
20260503181517 62 193 11.0 27.0 0.00 0.00 0.00 41 1012.2
20260503180014 61 253 7.0 19.0 0.00 0.00 0.00 42 1012.7
20260503174505 61 256 8.0 20.0 0.00 0.00 0.00 39 1012.9
20260503173007 61 204 10.0 20.0 0.00 0.00 0.00 43 1012.9
20260503171511 61 165 8.0 16.0 0.00 0.00 0.00 42 1013.2
20260503081518 34 208 1.0 3.0 0.00 0.00 0.00 75 1015.6
20260503071520 34 227 0.0 2.0 0.00 0.00 0.00 80 1015.7
20260503054532 31 317 0.0 1.0 0.00 0.00 0.00 90 1016.2
20260503053015 31 317 0.0 0.0 0.00 0.00 0.00 89 1016.3
20260503051515 31 317 0.0 0.0 0.00 0.00 0.00 90 1016.5
20260503050018 31 317 0.0 0.0 0.00 0.00 0.00 89 1016.6
20260503044522 32 317 0.0 0.0 0.00 0.00 0.00 90 1016.6
20260503043026 33 317 0.0 0.0 0.00 0.00 0.00 90 1016.5
20260503041510 33 317 0.0 0.0 0.00 0.00 0.00 90 1016.5
20260503040027 33 317 0.0 0.0 0.00 0.00 0.00 90 1016.7
20260503034504 33 317 0.0 0.0 0.00 0.00 0.00 90 1016.7
20260503033004 33 317 0.0 0.0 0.00 0.00 0.00 88 1016.7
20260503031508 33 317 0.0 1.0 0.00 0.00 0.00 87 1016.6
20260503030009 34 317 0.0 0.0 0.00 0.00 0.00 88 1016.6
20260503024516 34 317 0.0 0.0 0.00 0.00 0.00 86 1016.7
20260503023004 35 317 0.0 0.0 0.00 0.00 0.00 86 1016.7
20260503021507 35 317 0.0 0.0 0.00 0.00 0.00 86 1016.7
20260503020009 36 317 0.0 0.0 0.00 0.00 0.00 84 1016.6
20260503014512 37 317 0.0 0.0 0.00 0.00 0.00 81 1016.6
20260503013016 38 317 0.0 0.0 0.00 0.00 0.00 78 1016.5
20260503011508 40 317 0.0 0.0 0.00 0.00 0.00 76 1016.5
20260503010008 42 317 0.0 0.0 0.00 0.00 0.00 72 1016.5
20260503004509 43 317 0.0 0.0 0.00 0.00 0.00 67 1016.4
20260503003013 44 317 0.0 0.0 0.00 0.00 0.00 61 1016.5
20260503001518 45 317 0.0 1.0 0.00 0.00 0.00 56 1016.6
20260503000022 46 317 0.0 1.0 0.00 0.00 0.00 52 1016.5
20260502234523 47 317 0.0 4.0 0.00 0.00 0.00 51 1016.5
20260502233011 47 246 1.0 3.0 0.00 0.00 0.00 50 1016.5
20260502231517 47 264 0.0 2.0 0.00 0.00 0.00 51 1016.6
20260502230021 47 264 0.0 4.0 0.00 0.00 0.00 51 1016.7
20260502224525 47 284 1.0 5.0 0.00 0.00 0.00 49 1016.7
20260502223007 47 239 1.0 7.0 0.00 0.00 0.00 48 1016.7
20260502221511 48 246 3.0 10.0 0.00 0.00 0.00 44 1016.7
20260502220025 48 288 2.0 7.0 0.00 0.00 0.00 46 1016.7
20260502214523 47 316 1.0 7.0 0.00 0.00 0.00 49 1016.7
20260502213031 47 276 2.0 6.0 0.00 0.00 0.00 44 1016.6
20260502211510 48 269 2.0 9.0 0.00 0.00 0.00 46 1016.7
20260502210019 47 248 1.0 7.0 0.00 0.00 0.00 49 1016.9
20260502204519 47 266 2.0 9.0 0.00 0.00 0.00 45 1016.9
20260502203026 47 281 0.0 8.0 0.00 0.00 0.00 47 1017.0
20260502201535 47 285 2.0 9.0 0.00 0.00 0.00 47 1017.1
20260502200012 47 244 3.0 8.0 0.00 0.00 0.00 44 1017.3
20260502194533 48 338 3.0 9.0 0.00 0.00 0.00 43 1017.4